Location: Ostrava
(49.8330°N, 18.2830°E)
Time: 08:53:25
(UTC+01:00)

ISS - Visible Passes

Search period start: 24 January 2022 00:00
Search period end: 03 February 2022 00:00
Orbit: 413 x 422 km, 51.6° (Epoch: 24 January)

Date Brightness Start Highest point End Pass type
(mag) Time Alt. Az. Time Alt. Az. Time Alt. Az.
24 Jan -3.8 18:16:59 10° W 18:20:19 74° NNW 18:20:53 56° NE visible
25 Jan -3.8 17:28:56 10° WSW 17:32:16 89° NW 17:34:49 16° ENE visible
25 Jan -1.9 19:05:53 10° W 19:07:45 30° WNW 19:07:45 30° WNW visible
26 Jan -3.6 18:17:48 10° W 18:21:06 61° N 18:21:41 50° NE visible
27 Jan -3.6 17:29:41 10° W 17:33:01 65° N 17:35:37 15° ENE visible
27 Jan -2.0 19:06:37 10° WNW 19:08:33 32° WNW 19:08:33 32° WNW visible
28 Jan -3.7 18:18:32 10° WNW 18:21:52 66° N 18:22:29 51° ENE visible
28 Jan -0.2 19:55:22 10° WNW 19:55:25 10° WNW 19:55:25 10° WNW visible
29 Jan -3.6 17:30:25 10° W 17:33:45 61° N 17:36:28 14° E visible
29 Jan -2.2 19:07:16 10° WNW 19:09:24 36° W 19:09:24 36° W visible
30 Jan -3.9 18:19:11 10° WNW 18:22:32 89° SSW 18:23:25 46° ESE visible
30 Jan -0.2 19:56:15 10° W 19:56:21 11° W 19:56:21 11° W visible
31 Jan -3.8 17:31:04 10° WNW 17:34:26 75° NNE 17:37:30 12° E visible
31 Jan -2.1 19:07:58 10° W 19:10:27 32° WSW 19:10:27 32° WSW visible
01 Feb -3.1 18:19:47 10° WNW 18:23:02 50° SSW 18:24:38 25° SE visible
02 Feb -3.5 17:31:38 10° WNW 17:34:59 70° SSW 17:38:17 10° ESE visible
02 Feb -1.3 19:09:02 10° W 19:11:18 17° SW 19:11:53 16° SSW visible
